DECAYED

STARLINK-1207, 45380 (Decayed)

Orbit data source: Space-Track

STARLINK-1207, 45380 was a payload satellite owned by SpaceX/Seattle (US) in LEO that was launched on Wed, 18 Mar 2020 UTC via an FALCON 9 launch vehicle from the Air Force Eastern Test Range (AFETR). Payload-class satellites include a variety of spacecraft equipped with specific instruments for various scientific and technological missions. These include communications satellites like Starlink; space stations such as the ISS; scientific satellites like the Hubble; Earth observation satellites from companies like Planet Labs, Umbra, and HawkEye 360; GPS; miniature CubeSats for education and research; and military/defense satellites.

Not visible in the next 10 days
Identifier
45380, 2020-019W
Orbit
Decayed
Country
Flag of USUS
Related business
Manufacturer
SpaceX/Seattle
Mission
Decayed Commercial Communications
Bus & Motor
STARLINK, Unknown motor
Mass
260 kg wet, ~248 kg dry
Launch date (UTC)
2020-03-18 (6 years ago)
Launch vehicle
FALCON 9
Launch site
Air Force Eastern Test Range (AFETR)
Object type
Payload
Rocket body
Debris
Shape & HBR
Box + 1 Pan, 10.1 m
Radar Cross Section
13.562 m², Large (>1 m²)

Expand to show TLE details & history
Last TLE update: 8 months ago

TLE from 8 months ago
0 STARLINK-1207
1 45380U 20019W   25042.45799179  .09629863  12393-4  54212-3 0  9998
2 45380  53.0267  56.0984 0001830 147.7503   1.2383 16.42073419271695
Epoch: 2025-02-11T10:59Z
TLE epoch observation values (Epoch: 2025-02-11T10:59:30.490Z)
Latitude
24.37484°
Longitude
-90.36516°
Altitude
160.006 km
Speed
7.815 km/s
True Right ascension
14h 25m 05s
True Declination
24° 14' 03"
Sunlit
Object was in full shadow at epoch
Visualization orbit readout
Latitude
Unknown
Longitude
Unknown
Altitude
Unknown
Speed
Unknown
Apparent Right ascension
Unknown
Apparent Declination
Unknown
Sunlit
N/A
Visualization observer readout
Local Sidereal Time
18:34:16
Azimuth
Unknown
Elevation
Unknown
Doppler factor
Unknown
Orbital elements
Apogee altitude
161.78 km
Perigee altitude
159.387 km
Semi-major axis
6,538.721 km
Eccentricity
0.00018
Inclination
53.0267°
RAAN
56.0984°
Arg. of periapsis
147.7503°
True anomaly
1.23875°
Mean anomaly
1.2383°
Eccentric anomaly
1.23853°
Mean motion
4.10491 °/min
Orbital period
87.7 mins
BSTAR
0.00054212
Loading maneuver chart data...
Computing Atmospheric mass density...
Loading historical data...
Loading historical data...
Loading historical data...
Loading historical data...
Loading historical data...
Loading historical data...
Loading historical data...

Documentation

Showing up to 5 results
|